Regional Weather Roundup
Issued by NWS Cleveland, OH

Home | Current Version | Previous Version | Graphics & Text | Print | Product List | Glossary On
Versions: 1 2 3 4 5 6 7 8 9 10 11 12 13 14 15 16 17 18 19 20 21 22 23 24 25 26 27 28 29 30 31 32 33 34 35 36 37 38 39 40 41 42 43 44 45 46 47 48 49 50
000
ASUS41 KCLE 271210
RWRCLE
OHIO REGIONAL WEATHER ROUNDUP
NATIONAL WEATHER SERVICE WILMINGTON, OH
700 AM EST SAT DEC 27 2014

NOTE: "FAIR" INDICATES FEW OR NO CLOUDS BELOW 12,000 FEET WITH NO
SIGNIFICANT WEATHER AND/OR OBSTRUCTIONS TO VISIBILITY.

OHZ001>008-015>018-024>027-034-035-043-044-271300-
   NORTHWEST OHIO

CITY           SKY/WX    TMP DP  RH WIND       PRES   REMARKS
DEFIANCE       CLOUDY    46  39  76 S9        30.10S
FINDLAY        CLOUDY    45  38  76 S10       30.12S
TOLEDO EXPRESS CLOUDY    45  39  79 S5        30.09S
TOLEDO METCALF CLOUDY    46  39  76 S10       30.11S
LIMA           CLOUDY    47  36  65 S12       30.13R
$$

OHZ009>014-019>023-028>033-038-089-271300-
   NORTHEAST OHIO

CITY           SKY/WX    TMP DP  RH WIND       PRES   REMARKS
CLE-HOPKINS    MOCLDY    42  34  73 S9        30.18R
CLE-LAKEFRONT  CLOUDY    45  35  68 SE10      30.13F
CUY CO. ARPT   PTCLDY    45  37  76 S14       30.15
LORAIN-ELYRIA  CLOUDY    40  34  79 S5        30.16R
ASHTABULA      CLOUDY    40  33  76 S7        30.17S
AKRON-CANTON   MOCLDY    38  31  76 S7        30.17S
WOOSTER        CLOUDY    38  33  82 S3        30.17S
MANSFIELD      CLOUDY    44  35  70 S7        30.17R
YOUNGSTOWN     MOCLDY    41  32  70 S7        30.17S
$$

OHZ042-051>053-060>062-070>072-077>081-271300-
  SOUTHWEST OHIO

CITY           SKY/WX    TMP DP  RH WIND       PRES   REMARKS
CINC-COVINGTON CLOUDY    44  32  62 S7        30.20R
CINC-LUNKEN    CLOUDY    35  35 100 CALM      30.22S
HAMILTON       CLOUDY    42  36  79 CALM      30.21R
DAYTON         CLOUDY    45  34  65 S15       30.18R
WRIGHT-PAT AFB CLOUDY    44  34  67 S9        30.18R
DAYTON GENERAL CLOUDY    43  34  70 S8        30.18R
WILMINGTON     CLOUDY    41  33  73 SW8       30.19R
$$

OHZ036-037-039>041-045>050-054>059-063>069-073>076-082>088-271300-
  CENTRAL AND SOUTHEAST OHIO

CITY           SKY/WX    TMP DP  RH WIND       PRES   REMARKS
COLUMBUS       CLOUDY    42  32  67 CALM      30.19R
OSU AIRPORT    CLOUDY    41  33  73 S5        30.18R
BOLTON FIELD   NOT AVBL
RICKENBACK AFB PTCLDY    40  32  74 S7        30.18F
NEWARK         PTCLDY    35  32  88 CALM      30.20R
MARION         CLOUDY    42  34  73 S9        30.16S
LANCASTER      CLEAR     36  31  82 SE5       30.20R
ZANESVILLE     MOCLDY    34  30  85 VRB3      30.21R
NEW PHILLY     CLOUDY    38  32  79 SE5       30.21S
$$


USA.gov is the U.S. government's official web portal to all federal, state and local government web resources and services.